Time,TemperatureF,DewpointF,PressureIn,WindDirection,WindDirectionDegrees,WindSpeedMPH,WindSpeedGustMPH,Humidity,HourlyPrecipIn,Conditions,Clouds,dailyrainin,SolarRadiationWatts/m^2,SoftwareType,DateUTC
2013-06-24 00:02:00,72.0,68.0,-100.00,SSE,153,0.0,2.0,87,0.00,,,0.00,0.000000,,2013-06-24 04:02:00,
2013-06-24 00:12:00,72.0,68.0,-100.00,SSE,153,0.0,2.0,87,0.00,,,0.00,0.000000,,2013-06-24 04:12:00,
2013-06-24 00:33:00,71.0,69.0,-100.00,NW,317,0.0,1.0,92,0.00,,,0.00,0.000000,,2013-06-24 04:33:00,
2013-06-24 00:43:00,71.0,69.0,-100.00,NW,317,0.0,1.0,92,0.00,,,0.00,0.000000,,2013-06-24 04:43:00,
2013-06-24 00:53:00,71.0,69.0,-100.00,NW,317,0.0,1.0,92,0.00,,,0.00,0.000000,,2013-06-24 04:53:00,
2013-06-24 01:02:00,71.0,69.0,-100.00,NW,317,0.0,1.0,92,0.00,,,0.00,0.000000,,2013-06-24 05:02:00,
2013-06-24 01:12:00,71.0,69.0,-100.00,NW,317,0.0,1.0,92,0.00,,,0.00,0.000000,,2013-06-24 05:12:00,
2013-06-24 01:13:00,70.0,68.0,-100.00,ESE,114,0.0,0.0,95,0.00,,,0.00,0.000000,,2013-06-24 05:13:00,
2013-06-24 01:48:00,70.0,68.0,-100.00,ESE,114,0.0,0.0,95,0.00,,,0.00,0.000000,,2013-06-24 05:48:00,
2013-06-24 02:10:00,70.0,68.0,-100.00,ESE,114,0.0,0.0,95,0.00,,,0.00,0.000000,,2013-06-24 06:10:00,
2013-06-24 02:13:00,71.0,70.0,-100.00,NNE,15,0.0,3.0,97,0.00,,,0.00,0.000000,,2013-06-24 06:13:00,
2013-06-24 02:48:00,71.0,70.0,-100.00,NNE,15,0.0,3.0,97,0.00,,,0.00,0.000000,,2013-06-24 06:48:00,
2013-06-24 02:57:00,71.0,70.0,-100.00,NNE,15,0.0,3.0,97,0.00,,,0.00,0.000000,,2013-06-24 06:57:00,
2013-06-24 03:06:00,71.0,70.0,-100.00,NNE,15,0.0,3.0,97,0.00,,,0.00,0.000000,,2013-06-24 07:06:00,
2013-06-24 03:13:00,72.0,69.0,-100.00,East,94,1.0,4.0,90,0.00,,,0.00,0.000000,,2013-06-24 07:13:00,
2013-06-24 03:49:00,72.0,69.0,-100.00,East,94,1.0,4.0,90,0.00,,,0.00,0.000000,,2013-06-24 07:49:00,
2013-06-24 03:58:00,72.0,69.0,-100.00,East,94,1.0,4.0,90,0.00,,,0.00,0.000000,,2013-06-24 07:58:00,
2013-06-24 04:05:00,72.0,69.0,-100.00,East,94,1.0,4.0,90,0.00,,,0.00,0.000000,,2013-06-24 08:05:00,
2013-06-24 04:13:00,70.0,67.0,-100.00,ESE,120,2.0,4.0,89,0.00,,,0.00,0.000000,,2013-06-24 08:13:00,
2013-06-24 04:48:00,70.0,67.0,-100.00,ESE,120,2.0,4.0,89,0.00,,,0.00,0.000000,,2013-06-24 08:48:00,
2013-06-24 04:56:00,70.0,67.0,-100.00,ESE,120,2.0,4.0,89,0.00,,,0.00,0.000000,,2013-06-24 08:56:00,
2013-06-24 05:08:00,70.0,67.0,-100.00,ESE,120,2.0,4.0,89,0.00,,,0.00,0.000000,,2013-06-24 09:08:00,
2013-06-24 05:13:00,68.0,66.0,-100.00,ESE,123,1.0,3.0,94,0.00,,,0.00,0.000000,,2013-06-24 09:13:00,
2013-06-24 05:49:00,68.0,66.0,-100.00,ESE,123,1.0,3.0,94,0.00,,,0.00,0.000000,,2013-06-24 09:49:00,
2013-06-24 06:00:00,68.0,66.0,-100.00,ESE,123,1.0,3.0,94,0.00,,,0.00,0.000000,,2013-06-24 10:00:00,
2013-06-24 06:13:00,67.0,66.0,-100.00,West,268,0.0,1.0,98,0.00,,,0.00,6.000000,,2013-06-24 10:13:00,
2013-06-24 06:51:00,67.0,66.0,-100.00,West,268,0.0,1.0,98,0.00,,,0.00,6.000000,,2013-06-24 10:51:00,
2013-06-24 06:59:00,67.0,66.0,-100.00,West,268,0.0,1.0,98,0.00,,,0.00,6.000000,,2013-06-24 10:59:00,
2013-06-24 07:13:00,71.0,70.0,-100.00,NW,310,1.0,2.0,98,0.00,,,0.00,67.000000,,2013-06-24 11:13:00,
2013-06-24 07:35:00,71.0,70.0,-100.00,NW,310,1.0,2.0,98,0.00,,,0.00,67.000000,,2013-06-24 11:35:00,
2013-06-24 07:51:00,71.0,70.0,-100.00,NW,310,1.0,2.0,98,0.00,,,0.00,67.000000,,2013-06-24 11:51:00,
2013-06-24 07:58:00,71.0,70.0,-100.00,NW,310,1.0,2.0,98,0.00,,,0.00,67.000000,,2013-06-24 11:58:00,
2013-06-24 08:07:00,71.0,70.0,-100.00,NW,310,1.0,2.0,98,0.00,,,0.00,67.000000,,2013-06-24 12:07:00,
2013-06-24 08:13:00,75.0,68.0,-100.00,SW,215,1.0,5.0,78,0.00,,,0.00,216.000000,,2013-06-24 12:13:00,
2013-06-24 08:49:00,75.0,68.0,-100.00,SW,215,1.0,5.0,78,0.00,,,0.00,216.000000,,2013-06-24 12:49:00,
2013-06-24 08:55:00,75.0,68.0,-100.00,SW,215,1.0,5.0,78,0.00,,,0.00,216.000000,,2013-06-24 12:55:00,
2013-06-24 09:13:00,80.0,72.0,-100.00,SW,227,2.0,5.0,76,0.00,,,0.00,316.000000,,2013-06-24 13:13:00,
2013-06-24 09:46:00,80.0,72.0,-100.00,SW,227,2.0,5.0,76,0.00,,,0.00,316.000000,,2013-06-24 13:46:00,
2013-06-24 09:58:00,80.0,72.0,-100.00,SW,227,2.0,5.0,76,0.00,,,0.00,316.000000,,2013-06-24 13:58:00,
2013-06-24 10:04:00,80.0,72.0,-100.00,SW,227,2.0,5.0,76,0.00,,,0.00,316.000000,,2013-06-24 14:04:00,
2013-06-24 10:13:00,83.0,71.0,-100.00,WSW,246,3.0,5.0,67,0.00,,,0.00,610.000000,,2013-06-24 14:13:00,
2013-06-24 10:47:00,83.0,71.0,-100.00,WSW,246,3.0,5.0,67,0.00,,,0.00,610.000000,,2013-06-24 14:47:00,
2013-06-24 10:59:00,83.0,71.0,-100.00,WSW,246,3.0,5.0,67,0.00,,,0.00,610.000000,,2013-06-24 14:59:00,
2013-06-24 11:06:00,83.0,71.0,-100.00,WSW,246,3.0,5.0,67,0.00,,,0.00,610.000000,,2013-06-24 15:06:00,
2013-06-24 11:13:00,88.0,73.0,-100.00,NW,305,2.0,5.0,61,0.00,,,0.00,779.000000,,2013-06-24 15:13:00,
2013-06-24 11:49:00,88.0,73.0,-100.00,NW,305,2.0,5.0,61,0.00,,,0.00,779.000000,,2013-06-24 15:49:00,
2013-06-24 11:57:00,88.0,73.0,-100.00,NW,305,2.0,5.0,61,0.00,,,0.00,779.000000,,2013-06-24 15:57:00,
2013-06-24 12:13:00,90.0,73.0,-100.00,WSW,237,2.0,7.0,58,0.00,,,0.00,906.000000,,2013-06-24 16:13:00,
2013-06-24 12:45:00,90.0,73.0,-100.00,WSW,237,2.0,7.0,58,0.00,,,0.00,906.000000,,2013-06-24 16:45:00,
2013-06-24 12:56:00,90.0,73.0,-100.00,WSW,237,2.0,7.0,58,0.00,,,0.00,906.000000,,2013-06-24 16:56:00,
2013-06-24 13:13:00,92.0,70.0,-100.00,WSW,238,2.0,5.0,49,0.00,,,0.00,978.000000,,2013-06-24 17:13:00,
2013-06-24 13:48:00,92.0,70.0,-100.00,WSW,238,2.0,5.0,49,0.00,,,0.00,978.000000,,2013-06-24 17:48:00,
2013-06-24 13:57:00,92.0,70.0,-100.00,WSW,238,2.0,5.0,49,0.00,,,0.00,978.000000,,2013-06-24 17:57:00,
2013-06-24 14:03:00,92.0,70.0,-100.00,WSW,238,2.0,5.0,49,0.00,,,0.00,978.000000,,2013-06-24 18:03:00,
2013-06-24 14:13:00,91.0,69.0,-100.00,NW,306,2.0,7.0,48,0.00,,,0.00,824.000000,,2013-06-24 18:13:00,
2013-06-24 14:50:00,91.0,69.0,-100.00,NW,306,2.0,7.0,48,0.00,,,0.00,824.000000,,2013-06-24 18:50:00,
2013-06-24 14:56:00,91.0,69.0,-100.00,NW,306,2.0,7.0,48,0.00,,,0.00,824.000000,,2013-06-24 18:56:00,
2013-06-24 15:07:00,91.0,69.0,-100.00,NW,306,2.0,7.0,48,0.00,,,0.00,824.000000,,2013-06-24 19:07:00,
2013-06-24 15:46:00,85.0,73.0,-100.00,North,351,5.0,14.0,67,0.00,,,0.00,346.000000,,2013-06-24 19:46:00,
2013-06-24 15:57:00,85.0,73.0,-100.00,North,351,5.0,14.0,67,0.00,,,0.00,346.000000,,2013-06-24 19:57:00,
2013-06-24 16:06:00,85.0,73.0,-100.00,North,351,5.0,14.0,67,0.00,,,0.00,346.000000,,2013-06-24 20:06:00,
2013-06-24 16:12:00,85.0,73.0,-100.00,North,351,5.0,14.0,67,0.00,,,0.00,346.000000,,2013-06-24 20:12:00,
2013-06-24 16:13:00,77.0,62.0,-100.00,West,278,5.0,14.0,60,0.00,,,0.00,378.000000,,2013-06-24 20:13:00,
2013-06-24 16:47:00,77.0,62.0,-100.00,West,278,5.0,14.0,60,0.00,,,0.00,378.000000,,2013-06-24 20:47:00,
2013-06-24 16:56:00,77.0,62.0,-100.00,West,278,5.0,14.0,60,0.00,,,0.00,378.000000,,2013-06-24 20:56:00,
2013-06-24 17:04:00,77.0,62.0,-100.00,West,278,5.0,14.0,60,0.00,,,0.00,378.000000,,2013-06-24 21:04:00,
2013-06-24 17:13:00,81.0,68.0,-100.00,South,179,3.0,7.0,65,0.00,,,0.00,393.000000,,2013-06-24 21:13:00,
2013-06-24 17:48:00,81.0,68.0,-100.00,South,179,3.0,7.0,65,0.00,,,0.00,393.000000,,2013-06-24 21:48:00,
2013-06-24 17:55:00,81.0,68.0,-100.00,South,179,3.0,7.0,65,0.00,,,0.00,393.000000,,2013-06-24 21:55:00,
2013-06-24 18:07:00,81.0,68.0,-100.00,South,179,3.0,7.0,65,0.00,,,0.00,393.000000,,2013-06-24 22:07:00,
2013-06-24 18:13:00,79.0,66.0,-100.00,SE,145,2.0,6.0,64,0.00,,,0.00,177.000000,,2013-06-24 22:13:00,
2013-06-24 18:51:00,79.0,66.0,-100.00,SE,145,2.0,6.0,64,0.00,,,0.00,177.000000,,2013-06-24 22:51:00,
2013-06-24 18:56:00,79.0,66.0,-100.00,SE,145,2.0,6.0,64,0.00,,,0.00,177.000000,,2013-06-24 22:56:00,
2013-06-24 19:06:00,79.0,66.0,-100.00,SE,145,2.0,6.0,64,0.00,,,0.00,177.000000,,2013-06-24 23:06:00,
2013-06-24 19:46:00,79.0,67.0,-100.00,WNW,283,2.0,5.0,67,0.00,,,0.00,54.000000,,2013-06-24 23:46:00,
2013-06-24 19:56:00,79.0,67.0,-100.00,WNW,283,2.0,5.0,67,0.00,,,0.00,54.000000,,2013-06-24 23:56:00,
2013-06-24 20:06:00,79.0,67.0,-100.00,WNW,283,2.0,5.0,67,0.00,,,0.00,54.000000,,2013-06-25 00:06:00,
2013-06-24 21:13:00,72.0,67.0,-100.00,ESE,107,1.0,2.0,85,-99.99,,,0.00,5.000000,,2013-06-25 01:13:00,
2013-06-24 21:46:00,72.0,67.0,-100.00,ESE,107,1.0,2.0,85,-99.99,,,0.00,5.000000,,2013-06-25 01:46:00,
2013-06-24 22:06:00,72.0,67.0,-100.00,ESE,107,1.0,2.0,85,-99.99,,,0.00,5.000000,,2013-06-25 02:06:00,
2013-06-24 22:13:00,71.0,69.0,-100.00,SE,141,0.0,4.0,94,0.00,,,0.00,0.000000,,2013-06-25 02:13:00,
2013-06-24 22:58:00,71.0,69.0,-100.00,SE,141,0.0,4.0,94,0.00,,,0.00,0.000000,,2013-06-25 02:58:00,
2013-06-24 23:08:00,71.0,69.0,-100.00,SE,141,0.0,4.0,94,0.00,,,0.00,0.000000,,2013-06-25 03:08:00,
2013-06-24 23:58:00,70.0,69.0,-100.00,SE,131,1.0,2.0,98,0.00,,,0.00,0.000000,,2013-06-25 03:58:00,